Flag Weather past 2 weeks in Sfax, Tunisia

Now
57 °F

Clear.


Feels Like: 57 °F
Forecast: 61 / 71 °F
Wind: 2 mph from Northwest

Location: Sfax El-Maou

Current Time: Nov 28, 2014 at 5:22:20 AM

Latest Report: Nov 28, 2014 at 2:00 AM


Visibility: 4 mi

Pressure: 29.77 "Hg

Humidity: 94%

Dew point: 55 °F

Location of SfaxLocation

Historic Weather in Sfax — Graph

°F

Sfax temperature yesterday

Maximum temperature yesterday: 75 °F (at 1:00 PM)
Minimum temperature yesterday: 61 °F (at 11:00 PM)
Average temperature yesterday: 68 °F

Past Weeks' High & Low Weather Summary

 TemperatureHumidityPressure
High82 °F (Nov 15, 3:00 PM)100% (Nov 19, 5:00 AM)30.27 "Hg (Nov 19, 5:00 AM)
Low52 °F (Nov 20, 7:00 AM)24% (Nov 15, 4:00 PM)29.77 "Hg (Nov 28, 12:00 AM)
Average66 °F73%30.04 "Hg
* Reported Nov 13 3:00 AM — Nov 28 2:00 AM, Sfax, Weather by CustomWeather, © 2014

Note: Actual official high and low records may vary slightly from our data, if they occured in-between our weather recording intervals... More about our weather records

Advertising

Sfax weather history for previous 24 hours

 ConditionsComfort  
Time TempWeatherWind HumidityBarometerVisibility
2:00 AM
Nov 28
57 °FClear.2 mph94%29.77 "Hg4 mi
1:00 AM59 °FClear.5 mph94%29.77 "Hg5 mi
12:00 AM61 °FClear.5 mph88%29.77 "Hg5 mi
11:00 PM
Nov 27
61 °FClear.3 mph94%29.80 "Hg5 mi
10:00 PM63 °FClear.No wind88%29.80 "Hg5 mi
9:00 PM64 °FClear.No wind88%29.80 "Hg5 mi
8:00 PM63 °FClear.No wind88%29.80 "Hg10 mi
7:00 PM64 °FClear.No wind78%29.80 "Hg10 mi
6:00 PM68 °FClear.5 mph73%29.80 "Hg10 mi
5:00 PM70 °FSunny.6 mph64%29.80 "Hg10 mi
4:00 PM72 °FSunny.10 mph61%29.80 "Hg10 mi
3:00 PM73 °FPassing clouds.9 mph57%29.80 "Hg5 mi
2:00 PM75 °FPassing clouds.9 mph47%29.80 "Hg5 mi
1:00 PM75 °FPassing clouds.8 mph57%29.83 "Hg5 mi
12:00 PM73 °FPassing clouds.12 mph69%29.86 "Hg5 mi
11:00 AM73 °FPassing clouds.10 mph74%29.86 "Hg5 mi
10:00 AM72 °FScattered clouds.9 mph78%29.89 "Hg5 mi
9:00 AM70 °FScattered clouds.6 mph83%29.89 "Hg5 mi
8:00 AM66 °FPartly sunny.5 mph94%29.86 "Hg4 mi
7:00 AM66 °FPassing clouds.5 mph94%29.86 "Hg4 mi
6:00 AM64 °FPassing clouds.5 mph94%29.89 "Hg4 mi
5:00 AM63 °FPassing clouds.5 mph94%29.89 "Hg4 mi
Weather by CustomWeather, © 2014

See weather overviewHow to use our weather pages